Flag for Guinea Weather past 2 weeks in Boké, Guinea

Now
75 °F

Fog.


Feels Like: 74 °F
Forecast: 65 / 94 °F
Wind: 5 mph from North

Location: Conakry / Gbessia

Current Time: Dec 27, 2014 at 8:02:40 AM

Latest Report: Dec 27, 2014 at 7:00 AM


Visibility: 1 mi

Pressure: 29.95 "Hg

Humidity: 94%

Dew point: 73 °F

Location of BokéLocation

Historic Weather in Boké — Graph

°F

Boké temperature yesterday

Maximum temperature yesterday: 93 °F (at 3:00 PM)
Minimum temperature yesterday: 77 °F (at 5:00 AM)
Average temperature yesterday: 84 °F

Past Weeks' High & Low Weather Summary

 TemperatureHumidityPressure
High93 °F (Dec 26, 3:00 PM)100% (Dec 15, 7:00 AM)29.98 "Hg (Dec 15, 7:00 AM)
Low68 °F (Dec 24, 2:00 PM)28% (Dec 26, 3:00 PM)29.80 "Hg (Dec 12, 3:00 PM)
Average81 °F73%29.89 "Hg
* Reported Dec 12 7:00 AM — Dec 27 7:00 AM, Boké, Weather by CustomWeather, © 2014

Note: Actual official high and low records may vary slightly from our data, if they occured in-between our weather recording intervals... More about our weather records

Advertising

Boké weather history for previous 24 hours

 ConditionsComfort  
Time TempWeatherWind HumidityBarometerVisibility
7:00 AM
Dec 27
75 °FFog.5 mph94%29.95 "Hg1 mi
6:00 AM75 °FFog.2 mph94%29.92 "Hg1 mi
5:00 AM75 °FFog.7 mph100%29.92 "Hg1 mi
4:00 AM75 °FClear.5 mph94%29.89 "Hg10 mi
3:00 AM77 °FClear.7 mph89%29.89 "Hg10 mi
2:00 AM77 °FClear.9 mph89%29.89 "Hg10 mi
1:00 AM77 °FClear.9 mph89%29.92 "Hg10 mi
12:00 AM79 °FClear.9 mph79%29.92 "Hg10 mi
11:00 PM
Dec 26
79 °FHaze.9 mph79%29.92 "Hg3 mi
10:00 PM79 °FHaze.5 mph74%29.92 "Hg3 mi
9:00 PM81 °FHaze.5 mph74%29.89 "Hg3 mi
8:00 PM81 °FHaze.5 mph66%29.86 "Hg3 mi
7:00 PM82 °FHaze.5 mph66%29.86 "Hg3 mi
6:00 PM88 °FHaze.5 mph59%29.83 "Hg3 mi
5:00 PM91 °FHaze.7 mph56%29.83 "Hg3 mi
4:00 PM93 °FHaze.7 mph32%29.83 "Hg3 mi
3:00 PM93 °FHaze.7 mph28%29.83 "Hg3 mi
2:00 PM91 °FHaze.5 mph63%29.89 "Hg3 mi
1:00 PM86 °FHaze.5 mph62%29.92 "Hg3 mi
12:00 PM84 °FHaze.2 mph62%29.95 "Hg3 mi
11:00 AM84 °FHaze.5 mph55%29.95 "Hg3 mi
10:00 AM81 °FHaze.2 mph58%29.98 "Hg3 mi
9:00 AM77 °FFog.5 mph79%29.95 "Hg2 mi
Weather by CustomWeather, © 2014

See weather overviewHow to use our weather pages